Weather in Pervomayskoye

Russia / Kaliningrad Oblast     54°35′26″N   22°16′02″E
temp.,
°C
wind,
m/s
gust,
m/s
humid.,
%
clouds,
%
prec.,
mm/h
press.,
hPa
HPBL,
m
15 april, thu
thu1523:00+3nne71397100 0.4 1020698
02:00+3nne71397100 1.2 1020749
05:00+3nne71397100 0.2 1019679
08:00+4ne71389100 0.5 1020703
11:00+5ne71282100 0.1 1020734
14:00+8ne71175100 0.4 1020932
17:00+6ne61288100 0.3 1020973
20:00+6ne51380100 0.5 1020756
16 april, fri
fri1623:00+6ne61179100 0.1 1019861
02:00+5nne61190100 0.3 1018661
05:00+5nne51189100 0.1 1017624
08:00+5nne51193100 0.8 1018661
11:00+5ne5995100 0.3 1018544
14:00+7ne5893100 1.1 1018516
17:00+8ne5787100 0.0 1019611
20:00+7nne4993100 0.1 1020333
17 april, sat
sat1723:00+7ne4109698 0.0 1020384
02:00+7ne4998100 0.1 1020378
05:00+7ne3798100 0.2 1020274
08:00+7ne3599100 2.8 1020252
11:00+12ene457652 0.1 1021852
14:00+13e687014 1.1 10211176
17:00+12ene587798 0.9 1021753
20:00+9e3791100 1.1 1022148
18 april, sun
sun1823:00+8ese3689100 0.1 1023129
02:00+7se239087 0.1 102352
05:00+7ese2488100 0.0 102490
08:00+9e248292 0.0 1024315
11:00+11e4579100 0.1 1024734
14:00+10e3693100 0.3 1024263
17:00+12ene4685100 0.1 1023378
20:00+10ene3592100 0.8 1023108
19 april, mon
mon1923:00+9ese31092100 0.9 1023250
02:00+10ese41091100 0.9 1023337
05:00+9ese41094100 0.0 1022311
08:00+11ese6118470 0.0 1022630
11:00+13ese8107189 0.2 10221187
14:00+14ese7106077 0.3 10211468
17:00+14ese6106593 0.1 10211248
20:00+11ese61173100 0.1 1021564